MAU208 FIMP-FMEE

Flight info

Callsign MAU208
Flight time 0h 44m
Altitude 14000
Route SOBAT1 SOBAT SOBAT2R
Aircraft AT76/M-SDFGIRY/S

Departure

Time 2026-05-06 20:52
Airport Sir Seewoosagur Ramgoolam International Airport (FIMP)

Arrival

Time 2026-05-06 21:37
Airport Roland Garros Airport (FMEE)
Time Latitude Longitude Altitude Speed Heading
2026-05-06 20:18 -20.42941 57.67557 183 ft 0 kts 150°
2026-05-06 20:46 -20.42936 57.67554 183 ft 3 kts 150°
2026-05-06 20:46 -20.42904 57.67534 183 ft 7 kts 149°
2026-05-06 20:47 -20.42865 57.67510 183 ft 1 kts 149°
2026-05-06 20:47 -20.42872 57.67548 183 ft 5 kts 66°
2026-05-06 20:47 -20.42859 57.67573 183 ft 3 kts 61°
2026-05-06 20:47 -20.42824 57.67570 183 ft 8 kts 320°
2026-05-06 20:48 -20.42775 57.67526 183 ft 9 kts 321°
2026-05-06 20:48 -20.42752 57.67508 184 ft 2 kts 322°
2026-05-06 20:48 -20.42752 57.67507 184 ft 0 kts 322°
2026-05-06 20:49 -20.42747 57.67503 184 ft 6 kts 323°
2026-05-06 20:50 -20.42667 57.67467 200 ft 14 kts 342°
2026-05-06 20:50 -20.42586 57.67451 189 ft 3 kts 37°
2026-05-06 20:50 -20.42589 57.67458 198 ft 1 kts 114°
2026-05-06 20:51 -20.42611 57.67506 197 ft 29 kts 117°
2026-05-06 20:51 -20.42808 57.67903 182 ft 90 kts 118°
2026-05-06 20:52 -20.43164 57.68649 269 ft 126 kts 117°
2026-05-06 20:52 -20.43592 57.69494 743 ft 130 kts 118°
2026-05-06 20:52 -20.44007 57.70337 1343 ft 126 kts 114°
2026-05-06 20:52 -20.44365 57.71222 1580 ft 141 kts 114°
2026-05-06 20:53 -20.44836 57.72250 1626 ft 165 kts 115°
2026-05-06 20:53 -20.45430 57.73304 1935 ft 169 kts 134°
2026-05-06 20:53 -20.46534 57.73705 2298 ft 177 kts 184°
2026-05-06 20:53 -20.47610 57.73063 2651 ft 184 kts 224°
2026-05-06 20:54 -20.48636 57.72300 2900 ft 179 kts 192°
2026-05-06 20:54 -20.49835 57.71944 3178 ft 181 kts 193°
2026-05-06 20:54 -20.51058 57.71615 3522 ft 181 kts 188°
2026-05-06 20:54 -20.52302 57.71365 3858 ft 182 kts 187°
2026-05-06 20:55 -20.53538 57.71056 4130 ft 186 kts 205°
2026-05-06 20:55 -20.54361 57.70020 4425 ft 194 kts 252°
2026-05-06 20:55 -20.54423 57.68566 4792 ft 196 kts 276°
2026-05-06 20:55 -20.54198 57.67135 5147 ft 195 kts 283°
2026-05-06 20:56 -20.53804 57.65749 5500 ft 195 kts 290°
2026-05-06 20:56 -20.53314 57.64406 5870 ft 194 kts 293°
2026-05-06 20:56 -20.52793 57.63079 6202 ft 194 kts 292°
2026-05-06 20:56 -20.52293 57.61746 6525 ft 194 kts 291°
2026-05-06 20:57 -20.51812 57.60425 6816 ft 195 kts 291°
2026-05-06 20:57 -20.51318 57.59046 7106 ft 196 kts 290°
2026-05-06 20:57 -20.50834 57.57687 7396 ft 197 kts 290°
2026-05-06 20:57 -20.50354 57.56334 7670 ft 198 kts 290°
2026-05-06 20:58 -20.49867 57.54958 7948 ft 199 kts 290°
2026-05-06 20:58 -20.49377 57.53575 8217 ft 200 kts 290°
2026-05-06 20:58 -20.48880 57.52178 8502 ft 201 kts 290°
2026-05-06 20:58 -20.48381 57.50776 8775 ft 203 kts 290°
2026-05-06 20:59 -20.47880 57.49368 9040 ft 204 kts 290°
2026-05-06 20:59 -20.47377 57.47952 9308 ft 205 kts 289°
2026-05-06 20:59 -20.46870 57.46528 9566 ft 206 kts 289°
2026-05-06 20:59 -20.46527 57.45063 9798 ft 204 kts 265°
2026-05-06 21:00 -20.46769 57.43581 10003 ft 203 kts 254°
2026-05-06 21:00 -20.47132 57.42123 10209 ft 204 kts 252°
2026-05-06 21:00 -20.47509 57.40657 10423 ft 205 kts 252°
2026-05-06 21:00 -20.47757 57.39679 10569 ft 206 kts 253°
2026-05-06 21:01 -20.48105 57.38190 10795 ft 207 kts 255°
2026-05-06 21:01 -20.48436 57.36694 11022 ft 208 kts 255°
2026-05-06 21:01 -20.48766 57.35187 11246 ft 209 kts 255°
2026-05-06 21:01 -20.49095 57.33681 11477 ft 209 kts 255°
2026-05-06 21:02 -20.49421 57.32167 11683 ft 210 kts 256°
2026-05-06 21:02 -20.49736 57.30644 11900 ft 211 kts 256°
2026-05-06 21:02 -20.50057 57.29113 12115 ft 212 kts 256°
2026-05-06 21:02 -20.50381 57.27584 12322 ft 212 kts 256°
2026-05-06 21:03 -20.50708 57.26044 12531 ft 213 kts 256°
2026-05-06 21:03 -20.51039 57.24498 12729 ft 214 kts 256°
2026-05-06 21:03 -20.51374 57.22954 12930 ft 215 kts 256°
2026-05-06 21:03 -20.51712 57.21404 13120 ft 215 kts 256°
2026-05-06 21:04 -20.52048 57.19839 13303 ft 216 kts 256°
2026-05-06 21:04 -20.52383 57.18277 13484 ft 216 kts 256°
2026-05-06 21:04 -20.52721 57.16707 13680 ft 217 kts 256°
2026-05-06 21:04 -20.53059 57.15132 13865 ft 218 kts 256°
2026-05-06 21:05 -20.53398 57.13545 13963 ft 222 kts 256°
2026-05-06 21:05 -20.53745 57.11915 14013 ft 229 kts 256°
2026-05-06 21:05 -20.54104 57.10235 14036 ft 235 kts 256°
2026-05-06 21:05 -20.54470 57.08518 14055 ft 240 kts 256°
2026-05-06 21:06 -20.54846 57.06765 14058 ft 245 kts 256°
2026-05-06 21:06 -20.55229 57.04981 14061 ft 249 kts 256°
2026-05-06 21:06 -20.55618 57.03170 14064 ft 252 kts 256°
2026-05-06 21:06 -20.56009 57.01342 14060 ft 254 kts 256°
2026-05-06 21:07 -20.56402 56.99504 14062 ft 255 kts 256°
2026-05-06 21:07 -20.56799 56.97649 14057 ft 256 kts 256°
2026-05-06 21:07 -20.57197 56.95792 14057 ft 257 kts 256°
2026-05-06 21:07 -20.57595 56.93931 14064 ft 258 kts 256°
2026-05-06 21:08 -20.57992 56.92068 14062 ft 258 kts 256°
2026-05-06 21:08 -20.58390 56.90199 14059 ft 258 kts 256°
2026-05-06 21:08 -20.58787 56.88330 14058 ft 258 kts 256°
2026-05-06 21:08 -20.59187 56.86455 14060 ft 258 kts 256°
2026-05-06 21:09 -20.59585 56.84583 14060 ft 259 kts 256°
2026-05-06 21:09 -20.59984 56.82714 14057 ft 259 kts 256°
2026-05-06 21:09 -20.60382 56.80841 14059 ft 259 kts 256°
2026-05-06 21:09 -20.60778 56.78971 14059 ft 259 kts 256°
2026-05-06 21:10 -20.61175 56.77105 14058 ft 259 kts 256°
2026-05-06 21:10 -20.61567 56.75248 14059 ft 259 kts 256°
2026-05-06 21:10 -20.61964 56.73377 14056 ft 259 kts 256°
2026-05-06 21:10 -20.62368 56.71477 14062 ft 259 kts 256°
2026-05-06 21:11 -20.62760 56.69641 14062 ft 259 kts 256°
2026-05-06 21:11 -20.63160 56.67759 14061 ft 259 kts 256°
2026-05-06 21:11 -20.63556 56.65881 14059 ft 259 kts 256°
2026-05-06 21:11 -20.63950 56.64007 14060 ft 259 kts 256°
2026-05-06 21:12 -20.64345 56.62134 14062 ft 259 kts 256°
2026-05-06 21:12 -20.64742 56.60256 14060 ft 259 kts 256°
2026-05-06 21:12 -20.65140 56.58378 14059 ft 259 kts 256°
2026-05-06 21:12 -20.65537 56.56501 14059 ft 259 kts 256°
2026-05-06 21:13 -20.65934 56.54619 14058 ft 259 kts 256°
2026-05-06 21:13 -20.66331 56.52741 14060 ft 259 kts 256°
2026-05-06 21:13 -20.66725 56.50867 14060 ft 259 kts 256°
2026-05-06 21:13 -20.67119 56.48996 14061 ft 260 kts 256°
2026-05-06 21:14 -20.67514 56.47116 14061 ft 260 kts 256°
2026-05-06 21:14 -20.67912 56.45226 14058 ft 260 kts 256°
2026-05-06 21:14 -20.68305 56.43357 14059 ft 260 kts 256°
2026-05-06 21:14 -20.68701 56.41473 14061 ft 260 kts 256°
2026-05-06 21:15 -20.69094 56.39597 14058 ft 260 kts 257°
2026-05-06 21:15 -20.69487 56.37694 14058 ft 260 kts 257°
2026-05-06 21:15 -20.69878 56.35813 14058 ft 260 kts 256°
2026-05-06 21:15 -20.70271 56.33926 14063 ft 260 kts 256°
2026-05-06 21:16 -20.70663 56.32041 14062 ft 260 kts 256°
2026-05-06 21:16 -20.71054 56.30152 14060 ft 260 kts 257°
2026-05-06 21:16 -20.71444 56.28267 14057 ft 260 kts 256°
2026-05-06 21:16 -20.71839 56.26383 14060 ft 259 kts 258°
2026-05-06 21:17 -20.71951 56.24467 14062 ft 260 kts 271°
2026-05-06 21:17 -20.71847 56.22535 14057 ft 261 kts 274°
2026-05-06 21:17 -20.71719 56.20601 14057 ft 261 kts 273°
2026-05-06 21:17 -20.71625 56.18668 14057 ft 261 kts 271°
2026-05-06 21:18 -20.71572 56.16725 14054 ft 261 kts 270°
2026-05-06 21:18 -20.71533 56.14789 14060 ft 261 kts 270°
2026-05-06 21:18 -20.71488 56.12851 14056 ft 261 kts 271°
2026-05-06 21:18 -20.71444 56.10912 14059 ft 261 kts 270°
2026-05-06 21:19 -20.71398 56.08974 14060 ft 261 kts 271°
2026-05-06 21:19 -20.71348 56.07037 14060 ft 261 kts 271°
2026-05-06 21:19 -20.71302 56.05095 14059 ft 261 kts 271°
2026-05-06 21:19 -20.71254 56.03152 14059 ft 261 kts 271°
2026-05-06 21:20 -20.71206 56.01213 14059 ft 262 kts 270°
2026-05-06 21:20 -20.71159 55.99298 14057 ft 262 kts 271°
2026-05-06 21:20 -20.71109 55.97331 14057 ft 261 kts 271°
2026-05-06 21:20 -20.71064 55.95386 14057 ft 261 kts 270°
2026-05-06 21:21 -20.71015 55.93449 14057 ft 261 kts 271°
2026-05-06 21:21 -20.70966 55.91505 14057 ft 261 kts 270°
2026-05-06 21:21 -20.70925 55.89570 14054 ft 261 kts 270°
2026-05-06 21:21 -20.70886 55.87653 14054 ft 261 kts 270°
2026-05-06 21:22 -20.70845 55.85718 14051 ft 261 kts 270°
2026-05-06 21:22 -20.70797 55.83778 14053 ft 261 kts 271°
2026-05-06 21:22 -20.70743 55.81836 14051 ft 261 kts 271°
2026-05-06 21:22 -20.70691 55.79896 14059 ft 261 kts 271°
2026-05-06 21:23 -20.70644 55.77959 14058 ft 261 kts 270°
2026-05-06 21:23 -20.70595 55.76015 14057 ft 261 kts 271°
2026-05-06 21:23 -20.70545 55.74081 14060 ft 262 kts 270°
2026-05-06 21:23 -20.70493 55.72139 14054 ft 263 kts 271°
2026-05-06 21:24 -20.70439 55.70150 13822 ft 273 kts 271°
2026-05-06 21:24 -20.70381 55.68079 13448 ft 285 kts 271°
2026-05-06 21:24 -20.70326 55.65935 13056 ft 293 kts 271°
2026-05-06 21:24 -20.70267 55.63765 12663 ft 290 kts 271°
2026-05-06 21:25 -20.70191 55.61635 12276 ft 284 kts 272°
2026-05-06 21:25 -20.70109 55.59543 11911 ft 279 kts 272°
2026-05-06 21:25 -20.70030 55.57488 11553 ft 275 kts 272°
2026-05-06 21:25 -20.69953 55.55466 11201 ft 271 kts 272°
2026-05-06 21:26 -20.69878 55.53459 10857 ft 268 kts 272°
2026-05-06 21:26 -20.69805 55.51488 10521 ft 266 kts 272°
2026-05-06 21:26 -20.69731 55.49521 10191 ft 263 kts 272°
2026-05-06 21:26 -20.69659 55.47573 9855 ft 261 kts 272°
2026-05-06 21:27 -20.69585 55.45643 9481 ft 260 kts 272°
2026-05-06 21:27 -20.69511 55.43720 9119 ft 258 kts 272°
2026-05-06 21:27 -20.69436 55.41813 8771 ft 257 kts 272°
2026-05-06 21:27 -20.69362 55.39907 8423 ft 256 kts 272°
2026-05-06 21:28 -20.69285 55.38015 8080 ft 255 kts 272°
2026-05-06 21:28 -20.69221 55.36126 7740 ft 254 kts 271°
2026-05-06 21:28 -20.69152 55.34246 7407 ft 254 kts 272°
2026-05-06 21:28 -20.69079 55.32355 7067 ft 254 kts 272°
2026-05-06 21:29 -20.69248 55.30504 6705 ft 250 kts 248°
2026-05-06 21:29 -20.70249 55.29085 6367 ft 236 kts 213°
2026-05-06 21:29 -20.71729 55.28504 6037 ft 222 kts 187°
2026-05-06 21:29 -20.73227 55.28325 5723 ft 213 kts 182°
2026-05-06 21:30 -20.74682 55.28216 5432 ft 207 kts 182°
2026-05-06 21:30 -20.76097 55.28112 5134 ft 202 kts 182°
2026-05-06 21:30 -20.77440 55.28331 4833 ft 193 kts 149°
2026-05-06 21:30 -20.78386 55.29296 4537 ft 187 kts 128°
2026-05-06 21:31 -20.79110 55.30429 4259 ft 183 kts 120°
2026-05-06 21:31 -20.79706 55.31622 3993 ft 181 kts 116°
2026-05-06 21:31 -20.80253 55.32830 3618 ft 185 kts 115°
2026-05-06 21:31 -20.80794 55.34082 3332 ft 183 kts 116°
2026-05-06 21:32 -20.81353 55.35261 3080 ft 173 kts 117°
2026-05-06 21:32 -20.82388 55.37452 2626 ft 158 kts 116°
2026-05-06 21:32 -20.82867 55.38490 2426 ft 151 kts 116°
2026-05-06 21:33 -20.83317 55.39472 2240 ft 144 kts 115°
2026-05-06 21:33 -20.83752 55.40418 2055 ft 139 kts 116°
2026-05-06 21:33 -20.84181 55.41314 1882 ft 132 kts 118°
2026-05-06 21:33 -20.84585 55.42174 1739 ft 126 kts 117°
2026-05-06 21:34 -20.84932 55.42976 1591 ft 112 kts 119°
2026-05-06 21:34 -20.85287 55.43713 1441 ft 112 kts 119°
2026-05-06 21:34 -20.85647 55.44456 1293 ft 114 kts 118°
2026-05-06 21:34 -20.86017 55.45196 1167 ft 114 kts 118°
2026-05-06 21:35 -20.86367 55.45962 1012 ft 114 kts 118°
2026-05-06 21:35 -20.86673 55.46737 787 ft 110 kts 116°
2026-05-06 21:35 -20.87024 55.47474 649 ft 110 kts 120°
2026-05-06 21:35 -20.87385 55.48189 572 ft 112 kts 119°
2026-05-06 21:36 -20.87719 55.48927 379 ft 110 kts 121°
2026-05-06 21:36 -20.88059 55.49657 249 ft 109 kts 123°
2026-05-06 21:36 -20.88406 55.50383 99 ft 111 kts 120°
2026-05-06 21:36 -20.88733 55.51074 57 ft 76 kts 116°
2026-05-06 21:37 -20.88857 55.51348 61 ft 29 kts 116°
2026-05-06 21:37 -20.88932 55.51513 60 ft 21 kts 115°
2026-05-06 21:37 -20.88990 55.51588 61 ft 7 kts 197°
2026-05-06 21:37 -20.89025 55.51529 60 ft 8 kts 252°
2026-05-06 21:38 -20.89032 55.51504 66 ft 0 kts 253°
2026-05-06 21:39 -20.89039 55.51480 64 ft 7 kts 252°
2026-05-06 21:39 -20.89059 55.51406 68 ft 13 kts 264°
2026-05-06 21:40 -20.89021 55.51304 69 ft 16 kts 297°
2026-05-06 21:40 -20.88968 55.51192 69 ft 17 kts 296°
2026-05-06 21:40 -20.88916 55.51079 65 ft 17 kts 296°
2026-05-06 21:40 -20.88894 55.51000 69 ft 5 kts 239°
2026-05-06 21:41 -20.88921 55.50980 71 ft 5 kts 209°
2026-05-06 21:41 -20.88956 55.50966 68 ft 6 kts 188°
2026-05-06 21:41 -20.88972 55.50971 66 ft 0 kts 143°
2026-05-06 21:41 -20.88980 55.50986 66 ft 0 kts 75°
2026-05-06 21:42 -20.88980 55.50987 67 ft 0 kts 83°